Voltar ao catálogo

IRIDE-MS1-EAG2-12

AtivoCiênciaSSO
NORAD 68461·PAYLOAD·🇬🇧 United Kingdom

Lançado Mar 30, 2026 de Vandenberg Space Force Base

Loading…

Próximas Passagens (próximas 24 horas)

TLE

AtualizadoSource: Space-Track

Época: Sep 14, 2026, 07:30 UTC

1 68461U 26067AX  26257.31304449  .00005583  00000-0  26933-3 0  9993
2 68461  97.4644 214.5485 0005986 104.8766 255.3131 15.19078180 25467

Acompanhe IRIDE-MS1-EAG2-12 em tempo real com AllMySat

Download on the App Store